MAS1058 WMKK-WMKJ

Flight info

Callsign MAS1058
Flight time N/A
Altitude 21000
Route RUSBU2D RUSBU Y511 TOPOR W534 EMTUV EMTUV1E
Aircraft B738/M-SDE2E3FGHIRWXY/LB1

Departure

Time 2026-04-30 10:16
Airport Kuala Lumpur International Airport (WMKK)

Arrival

Time N/A
Airport Senai International Airport (WMKJ)
Time Latitude Longitude Altitude Speed Heading
2026-04-30 09:58 2.75500 101.70697 74 ft 0 kts 55°
2026-04-30 10:01 2.75517 101.70721 74 ft 8 kts 55°
2026-04-30 10:02 2.75566 101.70793 74 ft 6 kts 56°
2026-04-30 10:02 2.75595 101.70837 74 ft 4 kts 57°
2026-04-30 10:02 2.75612 101.70864 74 ft 4 kts 57°
2026-04-30 10:02 2.75628 101.70888 74 ft 4 kts 57°
2026-04-30 10:03 2.75644 101.70911 74 ft 4 kts 56°
2026-04-30 10:03 2.75661 101.70937 74 ft 4 kts 57°
2026-04-30 10:03 2.75683 101.70974 74 ft 9 kts 59°
2026-04-30 10:03 2.75709 101.71038 74 ft 9 kts 99°
2026-04-30 10:04 2.75694 101.71071 74 ft 7 kts 133°
2026-04-30 10:04 2.75645 101.71107 74 ft 10 kts 146°
2026-04-30 10:04 2.75541 101.71175 74 ft 16 kts 147°
2026-04-30 10:04 2.75465 101.71229 74 ft 8 kts 143°
2026-04-30 10:05 2.75421 101.71261 74 ft 7 kts 143°
2026-04-30 10:05 2.75405 101.71300 74 ft 5 kts 82°
2026-04-30 10:05 2.75423 101.71337 74 ft 6 kts 53°
2026-04-30 10:05 2.75451 101.71375 74 ft 9 kts 54°
2026-04-30 10:06 2.75501 101.71454 74 ft 17 kts 58°
2026-04-30 10:06 2.75516 101.71519 74 ft 6 kts 138°
2026-04-30 10:06 2.75454 101.71560 74 ft 12 kts 147°
2026-04-30 10:06 2.75383 101.71608 74 ft 11 kts 146°
2026-04-30 10:07 2.75351 101.71630 74 ft 12 kts 146°
2026-04-30 10:07 2.75308 101.71659 74 ft 12 kts 148°
2026-04-30 10:07 2.75227 101.71709 74 ft 14 kts 149°
2026-04-30 10:07 2.75155 101.71760 74 ft 11 kts 142°
2026-04-30 10:08 2.75098 101.71801 74 ft 9 kts 146°
2026-04-30 10:08 2.75044 101.71838 74 ft 8 kts 147°
2026-04-30 10:08 2.74990 101.71873 74 ft 9 kts 144°
2026-04-30 10:08 2.74940 101.71904 74 ft 7 kts 143°
2026-04-30 10:09 2.74903 101.71931 74 ft 5 kts 143°
2026-04-30 10:09 2.74874 101.71950 74 ft 4 kts 149°
2026-04-30 10:09 2.74829 101.71980 74 ft 10 kts 144°
2026-04-30 10:09 2.74762 101.72031 74 ft 13 kts 122°
2026-04-30 10:10 2.74766 101.72085 74 ft 4 kts 56°
2026-04-30 10:10 2.74777 101.72100 74 ft 2 kts 57°
2026-04-30 10:10 2.74778 101.72102 74 ft 0 kts 57°
2026-04-30 10:11 2.74779 101.72103 74 ft 1 kts 57°
2026-04-30 10:11 2.74804 101.72141 74 ft 10 kts 56°
2026-04-30 10:12 2.74843 101.72189 74 ft 3 kts 32°
2026-04-30 10:12 2.74869 101.72189 74 ft 4 kts 331°
2026-04-30 10:12 2.74897 101.72169 74 ft 1 kts 326°
2026-04-30 10:12 2.74898 101.72169 74 ft 0 kts 326°
2026-04-30 10:15 2.74899 101.72168 74 ft 1 kts 326°
2026-04-30 10:15 2.74997 101.72101 75 ft 50 kts 327°
2026-04-30 10:15 2.75541 101.71738 75 ft 133 kts 326°
2026-04-30 10:15 2.76500 101.71092 141 ft 193 kts 324°
2026-04-30 10:16 2.77635 101.70339 979 ft 202 kts 327°
2026-04-30 10:16 2.78577 101.69388 2021 ft 199 kts 304°
2026-04-30 10:16 2.79402 101.68257 2571 ft 213 kts 321°
2026-04-30 10:17 2.82435 101.67619 3722 ft 244 kts 355°
2026-04-30 10:17 2.85804 101.66772 5180 ft 270 kts 344°
2026-04-30 10:17 2.87595 101.66300 6111 ft 271 kts 354°
2026-04-30 10:18 2.88806 101.66224 6711 ft 272 kts
2026-04-30 10:18 2.90642 101.66657 7569 ft 273 kts 27°
2026-04-30 10:18 2.92616 101.68089 8718 ft 275 kts 47°
2026-04-30 10:19 2.94238 101.71460 10323 ft 284 kts 82°
2026-04-30 10:19 2.94222 101.73461 10881 ft 300 kts 95°
2026-04-30 10:19 2.93753 101.75456 11314 ft 319 kts 110°
2026-04-30 10:19 2.92512 101.77325 11760 ft 339 kts 130°
2026-04-30 10:20 2.90779 101.79003 12221 ft 354 kts 134°
2026-04-30 10:20 2.87083 101.82414 13175 ft 379 kts 135°
2026-04-30 10:20 2.85165 101.84199 13896 ft 382 kts 134°
2026-04-30 10:21 2.83218 101.86019 14593 ft 386 kts 134°
2026-04-30 10:21 2.81906 101.87247 15043 ft 389 kts 134°
2026-04-30 10:21 2.79998 101.89038 15705 ft 392 kts 134°
2026-04-30 10:21 2.77329 101.91545 16532 ft 398 kts 135°
2026-04-30 10:22 2.75310 101.93443 17154 ft 402 kts 135°
2026-04-30 10:22 2.73280 101.95350 17771 ft 405 kts 135°
2026-04-30 10:22 2.71892 101.96654 18238 ft 406 kts 135°
2026-04-30 10:22 2.69841 101.98581 18819 ft 410 kts 135°
2026-04-30 10:23 2.67060 102.01193 19647 ft 413 kts 135°
2026-04-30 10:23 2.64947 102.03178 20201 ft 416 kts 135°
2026-04-30 10:23 2.62821 102.05175 20711 ft 420 kts 135°
2026-04-30 10:23 2.60673 102.07194 20827 ft 424 kts 135°
2026-04-30 10:24 2.58514 102.09179 20830 ft 422 kts 137°
2026-04-30 10:24 2.56235 102.11010 20834 ft 421 kts 140°
2026-04-30 10:24 2.53882 102.12767 20832 ft 420 kts 141°
2026-04-30 10:24 2.51494 102.14522 20829 ft 421 kts 141°
2026-04-30 10:25 2.49130 102.16262 20827 ft 422 kts 141°
2026-04-30 10:25 2.46754 102.18017 20822 ft 422 kts 141°
2026-04-30 10:25 2.44404 102.19758 20825 ft 421 kts 141°
2026-04-30 10:25 2.42039 102.21513 20822 ft 421 kts 141°
2026-04-30 10:26 2.39672 102.23273 20823 ft 421 kts 141°
2026-04-30 10:26 2.37332 102.25017 20818 ft 421 kts 141°
2026-04-30 10:26 2.35767 102.26183 20816 ft 421 kts 141°
2026-04-30 10:26 2.32627 102.28522 20817 ft 421 kts 141°
2026-04-30 10:27 2.30247 102.30297 20816 ft 422 kts 141°
2026-04-30 10:27 2.27920 102.32034 20816 ft 422 kts 141°
2026-04-30 10:27 2.25556 102.33798 20815 ft 422 kts 141°
2026-04-30 10:27 2.23200 102.35556 20818 ft 423 kts 141°
2026-04-30 10:28 2.21629 102.36727 20818 ft 422 kts 141°
2026-04-30 10:28 2.18487 102.39069 20818 ft 423 kts 141°
2026-04-30 10:28 2.16131 102.40826 20818 ft 422 kts 141°
2026-04-30 10:28 2.14552 102.42003 20823 ft 422 kts 141°